• Em Portugal
  • Lista de países
  • Para 7 dias
  • Temperatura da água
  • Mapas de satélite
  • Mapa do tempo
  • Widgets de tempo
  • user-avatar
    Iniciar Sessão

    Previsão horária em Mandalay

    Hoje, 14 Dezembro, Quinta-feira

    Tempo Temperatura Precipitação Vento Pressão Humidade
    00:00 +22°C° 0 mm 1 m/s 753 mmHg 83%
    01:00 +22°C° 0 mm 1 m/s 753 mmHg 83%
    02:00 +22°C° 0 mm 1 m/s 753 mmHg 83%
    03:00 +21°C° 0 mm 1 m/s 753 mmHg 83%
    04:00 +21°C° 0 mm 1 m/s 754 mmHg 83%
    05:00 +21°C° 0 mm 1 m/s 754 mmHg 84%
    06:00 +21°C° 0 mm 1 m/s 754 mmHg 81%
    07:00 +23°C° 0 mm 1 m/s 755 mmHg 75%
    08:00 +25°C° 0 mm 1 m/s 755 mmHg 69%
    09:00 +27°C° 0 mm 1 m/s 755 mmHg 62%
    10:00 +28°C° 0 mm 1 m/s 755 mmHg 58%
    11:00 +29°C° 0 mm 2 m/s 755 mmHg 54%
    12:00 +30°C° 0 mm 2 m/s 754 mmHg 50%
    13:00 +30°C° 0 mm 2 m/s 754 mmHg 51%
    14:00 +30°C° 0 mm 2 m/s 753 mmHg 51%
    15:00 +30°C° 0 mm 2 m/s 753 mmHg 52%
    16:00 +28°C° 0 mm 2 m/s 753 mmHg 59%
    17:00 +26°C° 0 mm 1 m/s 753 mmHg 65%
    18:00 +24°C° 0 mm 1 m/s 753 mmHg 72%
    19:00 +24°C° 0 mm 1 m/s 753 mmHg 74%
    20:00 +23°C° 0 mm 1 m/s 754 mmHg 76%
    21:00 +22°C° 0 mm 1 m/s 754 mmHg 78%
    22:00 +22°C° 0 mm 1 m/s 754 mmHg 79%
    23:00 +22°C° 0 mm 1 m/s 754 mmHg 80%

    Amanhã, 15 Dezembro, Sexta-feira

    Tempo Temperatura Precipitação Vento Pressão Humidade
    00:00 +21°C° 0 mm 1 m/s 754 mmHg 81%
    01:00 +21°C° 0 mm 1 m/s 754 mmHg 82%
    02:00 +21°C° 0 mm 1 m/s 754 mmHg 83%
    03:00 +20°C° 0 mm 1 m/s 754 mmHg 84%
    04:00 +20°C° 0 mm 1 m/s 754 mmHg 84%
    05:00 +20°C° 0 mm 1 m/s 754 mmHg 84%
    06:00 +19°C° 0 mm 1 m/s 755 mmHg 85%
    07:00 +21°C° 0 mm 1 m/s 755 mmHg 77%
    08:00 +24°C° 0 mm 1 m/s 755 mmHg 70%
    09:00 +26°C° 0 mm 1 m/s 756 mmHg 63%
    10:00 +27°C° 0 mm 1 m/s 755 mmHg 59%
    11:00 +29°C° 0 mm 1 m/s 755 mmHg 54%
    12:00 +30°C° 0 mm 2 m/s 754 mmHg 50%
    13:00 +30°C° 0 mm 2 m/s 754 mmHg 50%
    14:00 +30°C° 0 mm 2 m/s 753 mmHg 51%
    15:00 +30°C° 0 mm 2 m/s 753 mmHg 51%
    16:00 +28°C° 0 mm 2 m/s 753 mmHg 58%
    17:00 +26°C° 0 mm 1 m/s 754 mmHg 65%
    18:00 +24°C° 0 mm 1 m/s 754 mmHg 72%
    19:00 +23°C° 0 mm 1 m/s 755 mmHg 74%
    20:00 +23°C° 0 mm 1 m/s 755 mmHg 76%
    21:00 +22°C° 0 mm 1 m/s 756 mmHg 77%
    22:00 +22°C° 0 mm 1 m/s 755 mmHg 78%
    23:00 +21°C° 0 mm 1 m/s 755 mmHg 79%

    Depois de amanhã, 16 Dezembro, Sábado

    Tempo Temperatura Precipitação Vento Pressão Humidade
    00:00 +21°C° 0 mm 1 m/s 755 mmHg 79%
    01:00 +21°C° 0 mm 1 m/s 755 mmHg 80%
    02:00 +20°C° 0 mm 1 m/s 755 mmHg 80%
    03:00 +20°C° 0 mm 1 m/s 755 mmHg 80%
    04:00 +20°C° 0 mm 1 m/s 755 mmHg 80%
    05:00 +19°C° 0 mm 1 m/s 756 mmHg 81%
    06:00 +19°C° 0 mm 1 m/s 756 mmHg 81%
    07:00 +21°C° 0 mm 1 m/s 756 mmHg 74%
    08:00 +23°C° 0 mm 1 m/s 757 mmHg 67%
    09:00 +25°C° 0 mm 1 m/s 757 mmHg 60%
    10:00 +27°C° 0 mm 1 m/s 757 mmHg 56%
    11:00 +29°C° 0 mm 1 m/s 756 mmHg 52%
    12:00 +30°C° 0 mm 1 m/s 756 mmHg 48%
    13:00 +30°C° 0 mm 2 m/s 755 mmHg 48%
    14:00 +30°C° 0 mm 2 m/s 754 mmHg 49%
    15:00 +30°C° 0 mm 2 m/s 754 mmHg 49%
    16:00 +28°C° 0 mm 1 m/s 754 mmHg 56%
    17:00 +26°C° 0 mm 1 m/s 755 mmHg 62%
    18:00 +24°C° 0 mm 1 m/s 755 mmHg 69%
    19:00 +23°C° 0 mm 1 m/s 756 mmHg 70%
    20:00 +23°C° 0 mm 1 m/s 756 mmHg 72%
    21:00 +22°C° 0 mm 1 m/s 757 mmHg 73%
    22:00 +22°C° 0 mm 1 m/s 757 mmHg 73%
    23:00 +22°C° 0 mm 1 m/s 757 mmHg 74%

    17 Dezembro, Domingo

    Tempo Temperatura Precipitação Vento Pressão Humidade
    00:00 +21°C° 0 mm 1 m/s 757 mmHg 74%
    01:00 +21°C° 0 mm 1 m/s 756 mmHg 75%
    02:00 +21°C° 0 mm 1 m/s 756 mmHg 75%
    03:00 +21°C° 0 mm 1 m/s 756 mmHg 76%
    04:00 +20°C° 0 mm 1 m/s 756 mmHg 77%
    05:00 +20°C° 0 mm 1 m/s 757 mmHg 78%
    06:00 +20°C° 0 mm 1 m/s 757 mmHg 79%
    07:00 +22°C° 0 mm 1 m/s 758 mmHg 73%
    08:00 +24°C° 0 mm 1 m/s 758 mmHg 67%
    09:00 +26°C° 0 mm 1 m/s 759 mmHg 61%
    10:00 +27°C° 0 mm 1 m/s 758 mmHg 58%
    11:00 +29°C° 0 mm 1 m/s 758 mmHg 54%
    12:00 +30°C° 0 mm 2 m/s 757 mmHg 51%
    13:00 +30°C° 0 mm 2 m/s 756 mmHg 51%
    14:00 +30°C° 0 mm 1 m/s 756 mmHg 52%
    15:00 +30°C° 0 mm 1 m/s 755 mmHg 52%
    16:00 +28°C° 0 mm 1 m/s 755 mmHg 59%
    17:00 +26°C° 0 mm 1 m/s 756 mmHg 65%
    18:00 +24°C° 0 mm 1 m/s 756 mmHg 72%
    19:00 +24°C° 0 mm 1 m/s 757 mmHg 73%
    20:00 +23°C° 0 mm 1 m/s 757 mmHg 75%
    21:00 +23°C° 0 mm 1 m/s 758 mmHg 77%
    22:00 +23°C° 0 mm 1 m/s 757 mmHg 78%
    23:00 +22°C° 0 mm 1 m/s 757 mmHg 79%

    18 Dezembro, Segunda-feira

    Tempo Temperatura Precipitação Vento Pressão Humidade
    00:00 +22°C° 0 mm 1 m/s 757 mmHg 80%
    01:00 +22°C° 0 mm 1 m/s 757 mmHg 81%
    02:00 +21°C° 0 mm 1 m/s 756 mmHg 82%
    03:00 +21°C° 0 mm 1 m/s 756 mmHg 83%
    04:00 +21°C° 0 mm 1 m/s 757 mmHg 84%
    05:00 +20°C° 0 mm 1 m/s 757 mmHg 84%
    06:00 +20°C° 0 mm 1 m/s 757 mmHg 85%
    07:00 +22°C° 0 mm 1 m/s 758 mmHg 78%
    08:00 +24°C° 0 mm 1 m/s 758 mmHg 71%
    09:00 +26°C° 0 mm 1 m/s 759 mmHg 64%
    10:00 +28°C° 0 mm 1 m/s 758 mmHg 60%
    11:00 +29°C° 0 mm 1 m/s 758 mmHg 55%
    12:00 +30°C° 0 mm 2 m/s 757 mmHg 51%
    13:00 +30°C° 0 mm 2 m/s 756 mmHg 51%
    14:00 +30°C° 0 mm 2 m/s 756 mmHg 51%
    15:00 +30°C° 0 mm 2 m/s 755 mmHg 51%
    16:00 +28°C° 0 mm 1 m/s 755 mmHg 58%
    17:00 +26°C° 0 mm 1 m/s 756 mmHg 64%
    18:00 +24°C° 0 mm 1 m/s 756 mmHg 71%
    19:00 +24°C° 0 mm 1 m/s 757 mmHg 73%
    20:00 +23°C° 0 mm 1 m/s 757 mmHg 75%
    21:00 +23°C° 0 mm 1 m/s 757 mmHg 77%
    22:00 +22°C° 0 mm 1 m/s 757 mmHg 78%
    23:00 +22°C° 0 mm 1 m/s 757 mmHg 80%

    19 Dezembro, Terça-feira

    Tempo Temperatura Precipitação Vento Pressão Humidade
    00:00 +22°C° 0 mm 1 m/s 757 mmHg 81%
    01:00 +21°C° 0 mm 1 m/s 757 mmHg 82%
    02:00 +21°C° 0 mm 1 m/s 757 mmHg 83%
    03:00 +21°C° 0 mm 1 m/s 757 mmHg 84%
    04:00 +20°C° 0 mm 1 m/s 757 mmHg 85%
    05:00 +20°C° 0 mm 1 m/s 757 mmHg 85%
    06:00 +20°C° 0 mm 1 m/s 758 mmHg 86%
    07:00 +22°C° 0 mm 1 m/s 758 mmHg 79%
    08:00 +24°C° 0 mm 1 m/s 759 mmHg 72%
    09:00 +26°C° 0 mm 1 m/s 759 mmHg 66%
    10:00 +27°C° 0 mm 1 m/s 758 mmHg 62%
    11:00 +29°C° 0 mm 2 m/s 758 mmHg 58%
    12:00 +30°C° 0 mm 2 m/s 757 mmHg 54%
    13:00 +30°C° 0 mm 2 m/s 757 mmHg 54%
    14:00 +30°C° 0 mm 2 m/s 756 mmHg 55%
    15:00 +30°C° 0 mm 2 m/s 755 mmHg 56%
    16:00 +28°C° 0 mm 2 m/s 756 mmHg 62%
    17:00 +26°C° 0 mm 2 m/s 756 mmHg 69%
    18:00 +25°C° 0 mm 1 m/s 757 mmHg 75%
    19:00 +24°C° 0 mm 1 m/s 757 mmHg 76%
    20:00 +24°C° 0 mm 1 m/s 757 mmHg 78%
    21:00 +23°C° 0 mm 1 m/s 757 mmHg 80%
    22:00 +23°C° 0 mm 1 m/s 757 mmHg 80%
    23:00 +22°C° 0 mm 1 m/s 757 mmHg 81%
    Mostrar mais